SCP
0 0 0 0 0 0 0 0 0 0 0 0 -0 -0 -0 0 0 -0 -0 0 0 0 -0 -0 -0 0 0 0 0 0 0 0
0 0 -0 0 0 0 0 0 0 0 0 0 0 0 -0 0 0 0 0 0 0 0 -0 -0 0 0 -0 0 0 0 0 0
0 0 0 0 -0 -0 0 0 0 0 0 0 0 0 0 -0 -0 -0 0 0 0 0 -0 0 0 0 0 0 0 0 0 0
0 0 0 0 0 0 0 0 0 0 0 0 0 0 -0 0 -0 -0 0 -0 -0 0 -0 -0 0 0 0 0 0 0 0 0
0 0 0 0 0 0 0 0 0 0 0 0 -0 0 0 0 -0 0 0 -0 -0 0 0 0 0 0 0 0 0 0 0 0
0 0 0 0 0 0 0 0 0 0 0 0 0 0 0 0 0 0 0 0 0 -0 0 0 0 0 0 0 0 0 0 0
0 0 0 0 0 0 0 0 0 0 0 0 0 0 0 0 0 0 0 0 0 0 -0 0 0 0 0 -0 0 -0 0 0
0 0 0 0 0 0 0 0 0 0 0 0 0 0 0 0 0 0 0 0 0 0 0 0 0 0 0 0 0 0 0 0
0 0 0 0 0 0 0 0 0 0 0 0 0 0 0 0 0 0 0 0 0 0 0 0 0 0 0 0 0 0 0 0
0 0 0 0 0 0 0 0 0 0 0 0 0 0 0 0 0 0 0 0 0 0 0 0 0 0 0 0 0 0 0 0
0 0 0 0 0 0 0 0 0 0 0 0 0 0 0 0 -0 -0 -0 0 0 0 0 0 0 0 0 0 0 0 0 0
0 0 0 0 0 0 0 0 0 0 0 0 0 0 0 0 0 0 0 0 0 0 0 0 0 0 0 0 0 0 0 0
0 0 0 0 0 0 0 0 0 0 0 0 0 0 0 0 0 0 0 0 0 0 0 0 0 0 0 0 0 0 0 0
0 0 0 0 0 0 0 0 0 0 0 0 0 0 0 0 0 0 0 0 0 0 0 0 0 0 0 0 0 0 0 0
0 0 0 -0 0 0 0 0 0 0 0 0 0 0 0 0 0 0 0 0 0 0 0 0 0 0 0 0 0 0 0 0
0 0 0 0 0 0 0 0 0 0 0 0 0 0 0 0 0 0 0 0 0 0 0 0 0 0 0 0 0 0 0 0
0 0 0 0 0 0 0 0 0 0 0 0 0 0 0 0 0 0 0 0 0 0 0 0 0 0 0 0 0 0 0 0
0 0 0 0 0 0 0 0 0 0 0 0 0 0 0 0 0 0 0 0 0 0 0 0 0 0 0 0 0 0 0 0
0 0 0 0 0 0 0 0 0 0 0 0 0 0 0 0 0 0 0 0 0 0 0 0 0 0 0 0 0 0 0 0
Wind_Speed_500mb
6 6 6 11 12 4 9 3 5 1 7 12 9 13 17 8 3 19 41 57 59 56 61 69 64 60 55 55 50 45 46 45
8 9 22 5 15 8 4 6 8 3 7 8 7 8 14 19 7 6 17 32 47 53 60 60 64 60 56 57 53 46 47 48
10 3 10 9 8 8 7 4 6 6 5 9 12 4 7 10 11 10 8 16 28 37 42 64 61 61 57 56 56 53 52 50
6 2 1 2 4 10 11 10 1 5 5 5 11 12 6 5 6 8 15 21 26 28 35 45 58 58 61 59 59 56 53 54
7 8 7 3 5 5 8 5 13 11 4 7 12 17 13 11 4 8 13 9 6 16 29 39 47 51 57 63 59 55 53 55
10 3 2 8 6 8 6 10 12 15 7 12 18 17 13 9 7 5 10 9 2 6 21 29 36 44 48 57 64 60 58 53
6 6 6 4 5 12 12 3 13 8 15 20 2 11 18 7 8 3 4 7 4 7 18 31 37 39 46 58 63 67 62 55
8 4 2 6 8 9 11 5 20 10 18 8 6 20 20 14 16 13 6 3 3 7 7 13 22 26 33 42 55 57 63 68
10 3 2 12 19 17 12 8 8 15 5 9 13 15 12 11 13 13 9 3 2 6 9 16 20 21 22 25 30 47 67 75
6 10 15 3 4 9 13 9 16 16 13 3 5 6 3 6 13 15 11 7 9 12 15 20 26 28 30 30 28 33 47 62
9 17 4 5 11 13 15 11 13 9 9 7 1 4 6 11 9 7 7 6 10 16 23 28 28 31 30 32 34 32 36 42
8 9 13 10 18 13 5 15 22 18 15 9 2 6 4 6 9 9 8 8 14 19 25 30 32 31 32 30 34 31 31 32
11 11 6 11 15 24 17 7 19 31 21 18 6 2 3 6 10 14 18 20 19 24 28 33 29 30 31 29 37 26 18 15
7 11 16 28 20 18 14 15 15 28 24 20 14 9 15 22 25 22 21 25 25 27 28 27 25 27 28 28 27 28 21 15
19 12 5 56 31 38 22 16 19 28 25 23 13 15 20 25 24 24 22 23 27 29 30 24 22 26 28 26 25 33 24 25
10 15 16 40 33 29 32 23 22 27 22 12 5 8 14 21 19 20 21 22 26 30 32 26 21 21 26 26 26 32 25 25
6 3 9 16 44 31 33 27 21 23 18 11 7 11 18 24 26 26 24 23 26 30 29 22 19 17 23 26 22 33 28 27
12 26 24 24 53 42 33 32 25 30 22 15 12 15 22 28 29 27 26 26 27 26 25 23 17 19 20 20 18 33 28 23
2 7 27 9 29 41 36 32 31 31 21 15 13 18 25 31 31 27 26 25 25 22 23 21 19 19 14 15 21 30 25 25
Wind_Direction_500mb
12 115 176 149 207 63 115 106 247 333 274 253 235 259 292 333 238 217 218 223 221 222 222 218 224 222 217 219 222 224 226 230
122 113 52 223 131 178 213 200 261 215 283 276 272 267 257 276 340 318 250 233 228 225 224 223 225 222 220 220 222 227 227 227
179 41 162 148 173 70 104 317 234 264 263 219 236 195 287 281 295 301 300 256 238 229 227 227 226 224 223 223 228 230 234 233
80 18 265 174 156 183 234 189 259 304 269 181 212 191 210 195 252 300 303 282 253 234 222 221 230 230 226 224 233 234 237 240
150 174 166 208 125 129 116 145 188 224 240 170 201 203 222 223 242 328 350 332 213 220 225 225 227 233 234 234 237 240 240 242
225 164 88 166 159 166 235 205 174 223 241 208 210 209 203 207 178 353 3 4 235 226 238 220 227 241 246 248 242 243 245 244
112 123 158 158 177 195 230 203 230 239 225 262 225 199 180 196 193 152 49 44 33 244 250 234 244 248 248 245 250 253 246 241
159 171 193 207 246 242 234 222 245 260 270 296 95 131 133 150 174 189 226 239 184 194 232 236 245 248 245 248 245 255 242 242
193 186 216 249 227 222 229 218 243 220 251 337 119 131 148 178 194 202 179 123 243 252 256 265 263 258 258 248 246 248 249 245
150 159 216 51 292 233 230 236 225 268 280 237 59 79 128 181 176 178 198 271 264 274 282 286 286 282 262 257 261 264 253 249
174 206 348 241 199 183 201 216 201 208 178 194 85 32 119 61 97 168 211 232 269 281 288 287 291 287 275 253 253 268 261 248
158 200 218 222 188 169 119 238 190 195 196 188 144 275 31 35 21 355 337 315 299 294 297 294 294 288 278 270 253 254 264 251
179 217 250 244 153 154 198 213 184 196 195 176 202 302 257 259 285 295 299 306 305 309 311 306 291 282 280 274 261 257 264 257
150 210 247 157 138 199 203 189 205 202 194 200 219 263 291 289 283 280 278 293 300 304 306 316 296 286 279 275 264 253 252 254
200 204 126 177 186 204 194 194 203 198 201 216 247 290 301 301 288 267 264 282 293 297 301 308 287 272 271 272 265 243 238 241
162 188 202 200 206 208 211 203 209 202 205 205 245 299 302 297 291 275 271 273 285 292 297 296 284 264 262 276 269 234 215 217
232 161 162 220 212 211 207 207 200 198 178 171 188 269 290 299 300 288 275 274 284 294 295 293 291 267 274 273 252 208 207 211
216 192 179 202 209 208 206 199 195 181 180 197 230 267 288 294 296 286 274 279 288 291 287 282 291 277 286 270 232 199 210 218
213 248 204 180 204 205 201 202 192 193 199 220 246 276 290 295 294 281 275 282 291 283 276 273 293 274 251 234 205 190 190 174
Wind_Speed_850mb
6 6 6 11 12 4 9 3 5 1 7 12 9 13 17 8 3 19 41 57 59 56 61 69 64 60 55 55 50 45 46 45
8 9 22 5 15 8 4 6 8 3 7 8 7 8 14 19 7 6 17 32 47 53 60 60 64 60 56 57 53 46 47 48
10 3 10 9 8 8 7 4 6 6 5 9 12 4 7 10 11 10 8 16 28 37 42 64 61 61 57 56 56 53 52 50
6 2 1 2 4 10 11 10 1 5 5 5 11 12 6 5 6 8 15 21 26 28 35 45 58 58 61 59 59 56 53 54
7 8 7 3 5 5 8 5 13 11 4 7 12 17 13 11 4 8 13 9 6 16 29 39 47 51 57 63 59 55 53 55
10 3 2 8 6 8 6 10 12 15 7 12 18 17 13 9 7 5 10 9 2 6 21 29 36 44 48 57 64 60 58 53
6 6 6 4 5 12 12 3 13 8 15 20 2 11 18 7 8 3 4 7 4 7 18 31 37 39 46 58 63 67 62 55
8 4 2 6 8 9 11 5 20 10 18 8 6 20 20 14 16 13 6 3 3 7 7 13 22 26 33 42 55 57 63 68
10 3 2 12 19 17 12 8 8 15 5 9 13 15 12 11 13 13 9 3 2 6 9 16 20 21 22 25 30 47 67 75
6 10 15 3 4 9 13 9 16 16 13 3 5 6 3 6 13 15 11 7 9 12 15 20 26 28 30 30 28 33 47 62
9 17 4 5 11 13 15 11 13 9 9 7 1 4 6 11 9 7 7 6 10 16 23 28 28 31 30 32 34 32 36 42
8 9 13 10 18 13 5 15 22 18 15 9 2 6 4 6 9 9 8 8 14 19 25 30 32 31 32 30 34 31 31 32
11 11 6 11 15 24 17 7 19 31 21 18 6 2 3 6 10 14 18 20 19 24 28 33 29 30 31 29 37 26 18 15
7 11 16 28 20 18 14 15 15 28 24 20 14 9 15 22 25 22 21 25 25 27 28 27 25 27 28 28 27 28 21 15
19 12 5 56 31 38 22 16 19 28 25 23 13 15 20 25 24 24 22 23 27 29 30 24 22 26 28 26 25 33 24 25
10 15 16 40 33 29 32 23 22 27 22 12 5 8 14 21 19 20 21 22 26 30 32 26 21 21 26 26 26 32 25 25
6 3 9 16 44 31 33 27 21 23 18 11 7 11 18 24 26 26 24 23 26 30 29 22 19 17 23 26 22 33 28 27
12 26 24 24 53 42 33 32 25 30 22 15 12 15 22 28 29 27 26 26 27 26 25 23 17 19 20 20 18 33 28 23
2 7 27 9 29 41 36 32 31 31 21 15 13 18 25 31 31 27 26 25 25 22 23 21 19 19 14 15 21 30 25 25
Wind_Direction_850mb
12 115 176 149 207 63 115 106 247 333 274 253 235 259 292 333 238 217 218 223 221 222 222 218 224 222 217 219 222 224 226 230
122 113 52 223 131 178 213 200 261 215 283 276 272 267 257 276 340 318 250 233 228 225 224 223 225 222 220 220 222 227 227 227
179 41 162 148 173 70 104 317 234 264 263 219 236 195 287 281 295 301 300 256 238 229 227 227 226 224 223 223 228 230 234 233
80 18 265 174 156 183 234 189 259 304 269 181 212 191 210 195 252 300 303 282 253 234 222 221 230 230 226 224 233 234 237 240
150 174 166 208 125 129 116 145 188 224 240 170 201 203 222 223 242 328 350 332 213 220 225 225 227 233 234 234 237 240 240 242
225 164 88 166 159 166 235 205 174 223 241 208 210 209 203 207 178 353 3 4 235 226 238 220 227 241 246 248 242 243 245 244
112 123 158 158 177 195 230 203 230 239 225 262 225 199 180 196 193 152 49 44 33 244 250 234 244 248 248 245 250 253 246 241
159 171 193 207 246 242 234 222 245 260 270 296 95 131 133 150 174 189 226 239 184 194 232 236 245 248 245 248 245 255 242 242
193 186 216 249 227 222 229 218 243 220 251 337 119 131 148 178 194 202 179 123 243 252 256 265 263 258 258 248 246 248 249 245
150 159 216 51 292 233 230 236 225 268 280 237 59 79 128 181 176 178 198 271 264 274 282 286 286 282 262 257 261 264 253 249
174 206 348 241 199 183 201 216 201 208 178 194 85 32 119 61 97 168 211 232 269 281 288 287 291 287 275 253 253 268 261 248
158 200 218 222 188 169 119 238 190 195 196 188 144 275 31 35 21 355 337 315 299 294 297 294 294 288 278 270 253 254 264 251
179 217 250 244 153 154 198 213 184 196 195 176 202 302 257 259 285 295 299 306 305 309 311 306 291 282 280 274 261 257 264 257
150 210 247 157 138 199 203 189 205 202 194 200 219 263 291 289 283 280 278 293 300 304 306 316 296 286 279 275 264 253 252 254
200 204 126 177 186 204 194 194 203 198 201 216 247 290 301 301 288 267 264 282 293 297 301 308 287 272 271 272 265 243 238 241
162 188 202 200 206 208 211 203 209 202 205 205 245 299 302 297 291 275 271 273 285 292 297 296 284 264 262 276 269 234 215 217
232 161 162 220 212 211 207 207 200 198 178 171 188 269 290 299 300 288 275 274 284 294 295 293 291 267 274 273 252 208 207 211
216 192 179 202 209 208 206 199 195 181 180 197 230 267 288 294 296 286 274 279 288 291 287 282 291 277 286 270 232 199 210 218
213 248 204 180 204 205 201 202 192 193 199 220 246 276 290 295 294 281 275 282 291 283 276 273 293 274 251 234 205 190 190 174